Regional Weather Roundup
Issued by NWS Grand Forks, ND

Home | Current Version | Previous Version | Graphics & Text | Print | Product List | Glossary On
Versions: 1 2 3 4 5 6 7 8 9 10 11 12 13 14 15 16 17 18 19 20 21 22 23 24 25 26 27 28 29 30 31 32 33 34 35 36 37 38 39 40 41 42 43 44 45 46 47 48 49 50
000
ASUS43 KFGF 051731
RWRFGF
PRAIRIE TO PINES  WEATHER ROUNDUP
NATIONAL WEATHER SERVICE EASTERN NORTH DAKOTA/GRAND FORKS ND
1200 PM CDT THU MAY 05 2016

 **SATELLITE DATA USED TO AUGMENT SKY COVER AT AUTOMATED STATIONS**
 *****  WEATHER ACROSS EASTERN NORTH DAKOTA  *****

CITY           SKY/WX    TMP DP  RH WIND       PRES   REMARKS
GRAND FORKS    MOSUNNY   88  43  20 W23       29.80F
GRAND FRKS AFB SUNNY     86  43  22 W20G28    29.81F
DEVILS LAKE    SUNNY     82  46  28 W18       29.85F
FARGO          SUNNY     79  45  29 S12       29.88F
WAHPETON ARPT  SUNNY     81  36  19 W17G24    29.91F
$$

 ***** WEATHER ACROSS CENTRAL AND WESTERN NORTH DAKOTA  *****

CITY           SKY/WX    TMP DP  RH WIND       PRES   REMARKS
BISMARCK       SUNNY     81  45  28 S13       29.89F
MINOT          SUNNY     86  43  22 SW15      29.82F
JAMESTOWN      SUNNY     82  40  22 W18G26    29.88F
MINOT AFB      SUNNY     83  46  26 SW15      29.80F
GARRISON         N/A     81  45  28 SW10      29.86F
WILLISTON      SUNNY     80  47  31 S7        29.83F
DICKINSON      SUNNY     79  44  28 SW8       29.87F
HETTINGER      SUNNY     74  47  38 S5        29.92F
$$

 *****  OTHER AIRPORT OBSERVATIONS IN OUR AREA  *****

CITY           SKY/WX    TMP DP  RH WIND       PRES   REMARKS
WALHALLA       FAIR      86  46  25 W18G31    29.75S
GRAFTON AIRPOR FAIR      84  46  26 W20G29    29.79F
VALLEY CITY AR FAIR      84  41  21 W21       29.90S
CANDO          FAIR      84  43  23 W17G25    29.84S
CAVALIER APRT  FAIR      86  46  25 W21G28    29.75F
GWINNER        FAIR      81  45  28 SW21      29.91F
SHEYENNE NWR     N/A     81  43  26 SW13      29.95S
ROLLA            N/A     82  43  24 SW15      29.83S
 ***** THE ABOVE OBSERVATIONS ARE NON NWS ARE NOT QUALITY
       CONTROLLED AND MAY MIS-REPORT RAIN FOR SNOW...
$$

  *****  WEATHER ACROSS NORTHERN MINNESOTA  *****

CITY           SKY/WX    TMP DP  RH WIND       PRES   REMARKS
FLAG ISLAND    SUNNY     54  45  71 S12       29.73F
WARROAD        SUNNY     79  52  38 SW13G24   29.76F
ROSEAU         SUNNY     82  48  30 SW15      29.76F
HALLOCK        SUNNY     88  39  18 W23G29    29.74S
THF RVR FALLS  SUNNY     81  43  26 SW17      29.84F
BAUDETTE       SUNNY     76  41  28 SW14G23   29.79F
WASKISH        SUNNY     75  45  33 SW14      29.83F
CROOKSTON      SUNNY     84  45  24 W16G23    29.82F
STEPHEN NDAWN    N/A     86  46  25 W20         N/A
GREENBUSH NDAW   N/A     84  45  24 SW18        N/A
$$
  *****  WEATHER ACROSS CENTRAL AND WEST MINNESOTA  *****

CITY           SKY/WX    TMP DP  RH WIND       PRES   REMARKS
FOSSTON        SUNNY     79  37  22 W12G23    29.87F
BEMIDJI        SUNNY     78  40  25 SW9G17    29.87F
PARK RAPIDS    SUNNY     76  36  23 SW14      29.92F
ELBOW LAKE     FAIR      76  43  30 W13       29.95F
WADENA         SUNNY     73  39  29 SW14      29.94S
DETROIT LAKES  SUNNY     73  39  29 SW13      29.93S
MOORHEAD       SUNNY     81  43  26 SW9       29.89F
FERGUS FALLS   SUNNY     79  45  29 SW15      29.90F
MORRIS MN      SUNNY     77  39  25 SW14      29.95F
STAPLES        SUNNY     73  34  23 S13G18    29.94F
$$
  *****  WEATHER ELSEWHERE ACROSS MINNESOTA  *****

CITY           SKY/WX    TMP DP  RH WIND       PRES   REMARKS
DULUTH         MOSUNNY   63  35  35 SW15      29.94F
INTRNTL FALLS  SUNNY     75  38  26 W15G22    29.81F
ELY            SUNNY     63  34  34 S12       29.89F
CLOQUET        SUNNY     64  28  25 SW10      29.95F
WHEATON        SUNNY     82  45  26 SW13      29.94F
BRAINERD       SUNNY     69  33  26 S13G21    29.96F
HIBBING        SUNNY     64  36  35 VRB7      29.91F
ALEXANDRIA     SUNNY     73  36  25 S13       29.98F
SAINT CLOUD    SUNNY     68  32  26 S12       30.00F
MINNEAPOLIS    PTSUNNY   64  31  28 S9        30.03F
$$

  *****  WEATHER ACROSS SOUTH DAKOTA  *****

CITY           SKY/WX    TMP DP  RH WIND       PRES   REMARKS
SIOUX FALLS    MOSUNNY   69  46  43 S8        30.04F
BROOKINGS      SUNNY     73  43  33 S9        30.02S
WATERTOWN      SUNNY     75  41  29 S12       29.99F
HURON          SUNNY     77  44  30 SW13      29.98F
SISSETON         N/A     79  42  26 W20G31    29.91F
ABERDEEN       SUNNY     82  41  23 S14G20    29.94F
MITCHELL       SUNNY     76  44  32 S12       30.01F
PIERRE         SUNNY     80  46  30 S16       29.93F
MOBRIDGE       SUNNY     78  48  34 S15       29.89F
RAPID CITY     SUNNY     75  51  43 SE7       29.94F
$$

  *****  SOME WEATHER IN NEARBY STATES *****

CITY           SKY/WX    TMP DP  RH WIND       PRES   REMARKS
GLASGOW MT     PTSUNNY   71  47  42 SW6       29.82R
GREAT FALLS MT SUNNY     70  41  34 W6        29.91S
CHEYENNE WY    CLOUDY    70  27  20 W8        30.15F
SCOTTSBLUFF NE PTSUNNY   73  43  33 CALM      30.04S
OMAHA NE       MOSUNNY   69  42  37 CALM      30.09S
DES MOINES IA  MOSUNNY   64  32  30 CALM      30.10F
DAVENPORT IA   SUNNY     58  38  47 N7        30.08S
CHICAGO IL     SUNNY     58  42  55 N12       30.01S
EAU CLAIRE WI    N/A    N/A N/A N/A MISG        N/A
LA CROSSE WI   SUNNY     59  36  42 NW3       30.07S
$$

  *****  SOME NATIONAL WEATHER *****

CITY           SKY/WX    TMP DP  RH WIND       PRES   REMARKS
LA GUARDIA NY  CLOUDY    55  45  67 NE14      29.67F
RALEIGH NC     RAIN      54  52  94 N7        29.57F FOG
ATLANTA GA     PTSUNNY   60  36  40 NW24G30   29.80S
NEW ORLEANS LA SUNNY     76  55  48 N8        29.95F
OKLAHOMA CITY  SUNNY     75  40  28 N6        30.12F
ALBUQUERQUE NM MOSUNNY   72  24  16 VRB3      30.21F
SALT LAKE CITY PTSUNNY   78  32  18 S8        29.91F
LOS ANGELES CA PTSUNNY   63  53  70 W7        29.92S
BOISE ID       CLOUDY    63  45  51 CALM      29.87S
SEATTLE WA     PTSUNNY   58  45  62 NE8       30.06R
$$

*** WEATHER ACROSS MANITOBA...SASKATCHEWAN AND ONTARIO ***
                ***ONTARIO***

CITY           SKY/WX    TMP DP  RH WIND       PRES   REMARKS
GERALDTON      PTSUNNY   61  32  33 SW12G18   29.83F
THUNDER BAY    PTSUNNY   59  36  41 E8        29.89F
SIOUX LOOKOUT  PTSUNNY   70  41  35 SW14      29.74F
TORONTO        PTSUNNY   55  46  71 S7        29.83F
BIG TROUT LK   SUNNY     64  37  36 NW7       29.67R
PICKLE LAKE    PTSUNNY   64  37  36 W9G20     29.72R
DRYDEN         SUNNY     72  37  28 SW17G24   29.74F
KENORA         MOSUNNY   66  39  37 SW17G24   29.75F
$$
                *** MANITOBA***

CITY           SKY/WX    TMP DP  RH WIND       PRES   REMARKS
BRANDON        PTSUNNY   84  45  24 W13       29.76S
DAUPHIN        SUNNY     90  34  13 W18G25    29.67S
ISLAND LAKE    PTSUNNY   66  41  39 S6        29.66S
PILOT MOUND      N/A     88  39  18 W10G18      N/A
THE PAS        CLOUDY    72  41  33 N6        29.59S
THOMPSON       PTSUNNY   46  30  53 NE16G26   29.76R
WINNIPEG       PTSUNNY   88  41  19 NW15G21   29.69S
LYNN LAKE      PTSUNNY   45  32  61 E10       29.75R
CHURCHILL      PTSUNNY   25  18  74 NE7       29.96S WCI  17
GILLAM         CLOUDY    36  18  48 NE13G18   29.86R
$$
                ***SASKATCHEWAN***

CITY           SKY/WX    TMP DP  RH WIND       PRES   REMARKS
ESTEVAN        CLOUDY    86  45  23 S10       29.79F
KINDERSLEY     PTSUNNY   70  41  35 NW16G24   29.77S
LLOYDMINSTER   PTSUNNY   59  37  44 N18G25    29.87R
PRINCE ALBERT  CLOUDY    73  45  35 N10G17    29.70S SMOKE
REGINA         PTSUNNY   86  37  17 S10       29.74F
YORKTON        SUNNY     88  39  18 W17G24    29.70F
N. BATTLEFORD  SUNNY     73  39  29 N12G18    29.77R
LA RONGE       PTSUNNY   68  39  34 NW12G20   29.73R
SASKATOON      PTSUNNY   79  41  25 E7        29.71F
SWIFT CURRENT  SUNNY     79  39  24 W22G28    29.79S
$$
NOTE: THESE ARE AUTOMATED STATIONS WITH LIMITED QUALITY CONTROL
      "FAIR" INDICATES FEW OR NO CLOUDS BELOW 12,000 FEET WITH NO
      SIGNIFICANT WEATHER AND/OR OBSTRUCTIONS TO VISIBILITY.
      SKY/WX - SKY CONDITION AND SIGNIFICANT WEATHER.
      TMP - AIR TEMPERATURE.    DP   - DEWPOINT TEMPERATURE.
      RH  - RELATIVE HUMIDITY.  PRES - PRESSURE.
      HX  - HEAT INDEX.         WCI  - WIND CHILL INDEX.
$




USA.gov is the U.S. government's official web portal to all federal, state and local government web resources and services.